User: anonymous   Login
Location: Ostrava
(49.8330°N, 18.2830°E)
Time: 16:35:13
(UTC+01:00)
Language:

Cosmos 2221 - Orbit

View from above orbital plane
View from above orbital plane
View from above satellite
View from above satellite

Ground track
Ground track

The orbit data is extracted from the following two-line orbital elements,

1 22236U 92080A   14331.48457762  .00001789  00000-0  20009-3 0  3172
2 22236 082.5100 219.4528 0016315 207.3658 152.6701 14.86316381188696
Epoch (UTC): 27 November 2014 11:37:47
Eccentricity: 0.0016315
inclination: 82.5100°
perigee height: 598 km
apogee height: 621 km
right ascension of ascending node: 219.4528°
argument of perigee: 207.3658°
revolutions per day: 14.86316381
mean anomaly at epoch: 152.6701°
orbit number at epoch: 18869

The dashed part of the orbit path shows where the satellite is in the earth's shadow,  

DLR